Taurus 1
1 44530U 19059C   25051.90349077  .00011033  00000-0  21549-2 0  9993
2 44530  98.5912 186.4290 0009047   8.0746 352.0598 14.63069425288030
Duchifat 3
1 44854U 19089C   25051.83702147  .00038351  00000-0  11113-2 0  9996
2 44854  36.9491 320.7819 0008330 348.2556  11.8002 15.34610622286161
TO-108
1 44881U 19093C   25051.56781359  .00002411  00000-0  28741-3 0  9997
2 44881  97.8021 129.4839 0012996 225.4594 134.5560 14.85160331279899
FloripaSat 1
1 44885U 19093G   25051.83779860  .00009712  00000-0  86317-3 0  9999
2 44885  97.8193 139.3641 0011028 205.5362 154.5315 14.96281027280475
RS-44
1 44909U 19096E   25051.41415218  .00000007  00000-0 -17559-4 0  9999
2 44909  82.5216 299.8307 0217159 190.5736 169.0762 12.79738433240729
UPMSat 2
1 46276U 20061E   25051.78012199  .00049587  00000-0  78017-3 0  9993
2 46276  97.2600 123.6756 0000334 207.2483 152.8753 15.53455974248493
SALSAT
1 46495U 20068K   25051.91114800  .00011088  00000-0  51644-3 0  9992
2 46495  97.8498  25.1938 0012469 168.0757 192.0774 15.20027990242002
CubeSX-Sirius-HSE
1 47951U 21022V   25051.95414620  .00083160  00000-0  12939-2 0  9991
2 47951  97.4324 319.4620 0006761 356.4484   3.6720 15.53602962216787
CubeSX-HSE
1 47952U 21022W   25051.93236043  .00080802  00000-0  12348-2 0  9995
2 47952  97.4322 319.6230 0006249 351.1668   8.9474 15.54112943216793
KSU-Cubesat
1 47954U 21022Y   25051.79896213  .00276600  00000-0  17462-2 0  9997
2 47954  97.4293 323.7355 0003077  48.1734 311.9793 15.75835247216769
GRBAlpha
1 47959U 21022AD  25051.89472485  .00079671  00000-0  12254-2 0  9997
2 47959  97.4309 319.7413 0006669 356.2794   3.8409 15.53936143215618
Orbicraft-Zorkiy
1 47960U 21022AE  25051.91492609  .00158671  00000-0  15610-2 0  9999
2 47960  97.4302 322.9374 0003994   8.2882 351.8443 15.65482041216481
TUBIN
1 48900U 21059X   25051.89308998  .00039556  00000-0  74520-3 0  9994
2 48900  97.6673 213.3200 0005168 279.6688  80.3978 15.48402438203153
LEDSAT
1 49069U 21073D   25051.60383552  .00052085  00000-0  10943-2 0  9995
2 49069  97.4024 129.8263 0012894 117.5302 242.7258 15.45087232194528
CUTE
1 49263U 21088D   25051.77317610  .00027624  00000-0  65321-3 0  9999
2 49263  97.4631 125.2254 0008351 276.5088  83.5208 15.41754823187631
TeikyoSat 4
1 49396U 21102B   25051.61196410  .00003725  00000-0  25354-3 0  9997
2 49396  97.4266  93.9324 0013661 142.2342 217.9847 15.06816476180137
Z-Sat
1 49399U 21102E   25051.87855301  .00007458  00000-0  42589-3 0  9995
2 49399  97.3975  96.6639 0020017 119.0133 241.3107 15.12834927180530
KOSEN 1
1 49402U 21102H   25051.92890049  .00010831  00000-0  53546-3 0  9998
2 49402  97.3892  99.3668 0018164  98.5858 261.7435 15.17862056180797
HO-113
1 50466U 21131B   25051.58477065  .00001282  00000-0  41647-3 0  9992
2 50466  98.5125 141.4971 0005235 103.4356 256.7416 14.40550730165751
IRIS-A
1 51044U 22002BN  25051.44390436  .00109958  00000-0  14035-2 0  9993
2 51044  97.3436 126.6117 0004250 218.8285 141.2666 15.58897075172693
Foresail-1
1 52766U 22057AL  25051.92549574  .00073500  00000-0  95937-3 0  9991
2 52766  97.5984 193.8441 0006718 306.4346  53.6290 15.58417469152809
SNUGLITE 2
1 52899U 22065F   25051.33334354  .00003306  00000-0  65883-3 0  9994
2 52899  98.1486 194.5194 0008576  96.5080 263.7099 14.62653432140511
IO-117
1 53106U 22080B   25051.21822557 -.00000003  00000-0  00000+0 0  9995
2 53106  70.1434 106.3440 0008542  48.0089 312.1297  6.42557744 61200
FO-118
1 54684U 22167C   25051.58416933  .00566754  12660-3  18506-2 0  9990
2 54684  97.6072 215.7812 0009569 299.7051  60.3269 15.90555112122744
SO-120
1 56992U 23084BU  25042.76759540  .17342116  26494-5  33638-3 0  9995
2 56992  97.5047 178.6720 0014759 276.3055  83.6566 16.46134597 93271
UmKA 1 (RS40S)
1 57172U 23091G   25051.58710673  .00009356  00000-0  52866-3 0  9990
2 57172  97.5754 107.5934 0014782 355.9373   4.1735 15.13229628 90982
CubeBel-2 (EU11S)
1 57175U 23091K   25051.53231635  .00014384  00000-0  74913-3 0  9998
2 57175  97.5756 108.1153 0012972   6.7442 353.3962 15.16042904 91013
VERONIKA
1 58261U 23174F   25051.84759981  .00058463  00000-0  12157-2 0  9997
2 58261  97.4267 133.6650 0006792  80.8207 279.3810 15.45425851 71763
KAFASAT
1 58317U 23174BP  25051.84843461  .00206778  00000-0  19548-2 0  9991
2 58317  97.4148 137.1098 0002977 357.7368   2.3878 15.66336526 72013
ENSO
1 58470U 23185J   25051.87237684  .00039618  00000-0  91567-3 0  9999
2 58470  97.3889 124.5218 0009022 114.6561 245.5627 15.42359588 68207
EIRSAT-1
1 58472U 23185L   25051.87596349  .00054131  00000-0  10855-2 0  9994
2 58472  97.3884 125.2386 0007788 115.2163 244.9894 15.46500866 68255
SONATE-2
1 59112U 24043Q   25051.31253087  .00029986  00000-0  10250-2 0  9997
2 59112  97.4970 180.8278 0012253 141.4548 218.7570 15.30158627 53590
MO-122
1 60209U 24125G   25051.54393345  .00024937  00000-0  84208-3 0  9990
2 60209  97.2942 264.6799 0021193 164.6167 195.5723 15.30442999 35244
GRBBeta
1 60237U 24128C   25051.61706970  .00006389  00000-0  50551-3 0  9999
2 60237  61.9920  99.0538 0041349  32.2508 328.1097 15.00935806 33836
Curium One
1 60242U 24128H   25051.46538512  .00013262  00000-0  99480-3 0  9995
2 60242  61.9822  99.1773 0041627  26.7094 333.6128 15.02268643 33827
ROBUSTA-3A
1 60243U 24128J   25051.70451755  .00010407  00000-0  79310-3 0  9994
2 60243  61.9889  98.8415 0039944  24.7417 335.5578 15.01904233 33850
CatSat
1 60246U 24125J   25051.52666798  .00017844  00000-0  65021-3 0  9995
2 60246  97.2729 264.9456 0046751 121.0214 239.5629 15.27188150 33321
HYPERVIEW-1G (RS66S)
1 61772U 24199AP  25051.57600552  .00028035  00000-0  99072-3 0  9999
2 61772  97.3721 281.0037 0014281 218.7297 141.2921 15.29061590 60269
AO-123
1 61781U 24199AY  25051.88839462  .00011119  00000-0  43499-3 0  9994
2 61781  97.3729 281.0549 0015463 218.8445 141.1683 15.25889931 60294
POEM 4 (BGS ARPIT)
1 62461U 24253C   25051.75695687  .00186140  00000-0  77695-3 0  9998
2 62461  55.2195   7.3701 0011920  72.2729 287.9622 15.84581091  8206
